Вернуться в каталог

FENGYUN 1C DEB

АктивенPO
NORAD 46451·DEBRIS·🇨🇳 China

Запущен May 10, 1999 с Taiyuan Satellite Launch Center

Loading…

Ближайшие Пролёты (ближайшие 24 часа)

TLE

СвежийSource: Space-Track

Эпоха: Sep 14, 2026, 11:58 UTC

1 46451U 99025EZG 26257.49883347  .00004097  00000-0  15744-2 0  9996
2 46451  98.1461 261.0179 0166327  95.3054  54.7421 14.23560179609262

Отслеживайте FENGYUN 1C DEB в реальном времени с AllMySat

Download on the App Store